Content
SEND FEEDBACK

Daily
Averages
Monthly
Summary
United States of America

WILMINGTON, NORTH CAROLINA


Home > North America > United States > North Carolina
Elevation: 72 feet     Latitude: 34 16N     Longitude: 077 54W

WEATHER
 
SELECT A DAY
Number of Records: 209,081;   Date Range: 1/1/95 - 9/16/14
 
SHARE

PRINT THIS DATA

[ ← Previous Day ]
WEATHER ALMANAC - FEBRUARY 18, 2013
[ Next Day → ]
[ °C ]   °F
Weather ElementAverageHighLow
Temperature36.8 °F48 °F (12:53 pm)24.8 °F (6:53 am)
Dewpoint21.1 °F28 °F (8:53 pm)12 °F (12:53 pm)
Humidity57.6 %85 % (11:53 pm)24 % (12:53 pm)
Barometer30.38 in30.45 in (8:53 am)30.30 in (11:53 pm)
Wind Speed2.5 mph9.2 mph (3:53 pm)
Wind Gust17.3 mph (3:53 pm)
Weather ElementAverage
Visibility10 mi
Wind DirectionENE (53 °)

Weather ElementTotal
Precipitation---
Heating Degree Days28.6 (Base 65)
Averaged from 23 records on February 18, 2013
WEATHER CONDITIONS BREAKOUT
WIND DIRECTION BREAKOUT
WEATHER BY HOUR - FEBRUARY 18, 2013
[ °C ]   °F
Local TimeTemperatureDewpointHumidityBarometerVisibilityWind DirectionWind SpeedGust SpeedPrecipitationEventsConditions
1:53 AM28.9 °F21.0 °F72 %30.32 in10.0 miCalmClear
2:53 AM27.0 °F19.9 °F75 %30.33 in10.0 miCalmClear
3:53 AM27.0 °F19.9 °F75 %30.34 in10.0 miCalmClear
4:53 AM27.0 °F19.9 °F75 %30.36 in10.0 miCalmClear
5:53 AM26.1 °F19.9 °F78 %30.38 in10.0 miCalmClear
6:53 AM24.8 °F19.4 °F80 %30.40 in10.0 miCalmClear
7:53 AM28.9 °F21.9 °F75 %30.43 in10.0 miCalmClear
8:53 AM35.1 °F15.1 °F44 %30.45 in10.0 miNE (40°)8.1 mphClear
9:53 AM39.9 °F12.9 °F33 %30.45 in10.0 miCalmClear
10:53 AM43.0 °F14.0 °F31 %30.45 in10.0 miCalmClear
11:53 AM46.0 °F16.0 °F30 %30.44 in10.0 miSW (230°)3.5 mphClear
12:53 PM48.0 °F12.0 °F24 %30.41 in10.0 miCalmClear
1:53 PM48.0 °F21.0 °F34 %30.38 in10.0 miSSE (150°)8.1 mphClear
2:53 PM48.0 °F21.9 °F36 %30.37 in10.0 miSE (130°)8.1 mphClear
3:53 PM46.9 °F21.9 °F37 %30.39 in10.0 miSSE (150°)9.2 mph17.3 mphClear
4:53 PM46.9 °F21.9 °F37 %30.39 in10.0 miSouth (170°)9.2 mphClear
5:53 PM44.1 °F24.1 °F45 %30.38 in10.0 miSouth (180°)5.8 mphClear
6:53 PM39.0 °F26.1 °F60 %30.38 in10.0 miSouth (170°)4.6 mphClear
7:53 PM39.2 °F26.6 °F61 %30.38 in10.0 miCalmClear
8:53 PM36.0 °F28.0 °F73 %30.37 in10.0 miCalmClear
9:53 PM33.1 °F28.0 °F82 %30.35 in10.0 miCalmClear
10:53 PM32.0 °F27.0 °F82 %30.32 in10.0 miCalmClear
11:53 PM32.0 °F28.0 °F85 %30.30 in10.0 miCalmClear
Hourly data recorded from KILM, located miles away from Wilmington, North Carolina







STORIES FROM OUR PARTNERS